TimeCST,TemperatureF,Dew PointF,Humidity,Sea Level PressureIn,VisibilityMPH,Wind Direction,Wind SpeedMPH,Gust SpeedMPH,PrecipitationIn,Events,Conditions,WindDirDegrees,DateUTC
12:15 AM,17.6,5.0,58,30.65,10.0,WNW,9.2,-,N/A,,Clear,300,2013-11-24 06:15:00
12:35 AM,17.6,5.0,58,30.65,10.0,WNW,12.7,18.4,N/A,,Clear,300,2013-11-24 06:35:00
12:55 AM,17.6,5.0,58,30.64,10.0,WNW,12.7,18.4,N/A,,Clear,300,2013-11-24 06:55:00
1:15 AM,17.6,5.0,58,30.64,10.0,WNW,11.5,-,N/A,,Clear,300,2013-11-24 07:15:00
1:35 AM,17.6,5.0,58,30.65,10.0,WNW,10.4,-,N/A,,Clear,300,2013-11-24 07:35:00
1:55 AM,15.8,5.0,62,30.66,10.0,WNW,9.2,-,N/A,,Clear,290,2013-11-24 07:55:00
2:15 AM,15.8,5.0,62,30.66,10.0,WNW,9.2,-,N/A,,Clear,300,2013-11-24 08:15:00
2:35 AM,15.8,5.0,62,30.66,10.0,NW,10.4,-,N/A,,Clear,310,2013-11-24 08:35:00
2:55 AM,15.8,5.0,62,30.65,10.0,NW,9.2,-,N/A,,Clear,310,2013-11-24 08:55:00
3:15 AM,14.0,5.0,67,30.65,10.0,NW,8.1,-,N/A,,Clear,310,2013-11-24 09:15:00
3:35 AM,14.0,5.0,67,30.65,10.0,NW,6.9,-,N/A,,Clear,310,2013-11-24 09:35:00
3:55 AM,14.0,5.0,67,30.64,10.0,WNW,6.9,-,N/A,,Clear,300,2013-11-24 09:55:00
4:15 AM,14.0,5.0,67,30.65,10.0,WNW,6.9,-,N/A,,Clear,300,2013-11-24 10:15:00
4:35 AM,14.0,5.0,67,30.65,10.0,West,6.9,-,N/A,,Clear,280,2013-11-24 10:35:00
4:55 AM,14.0,5.0,67,30.65,10.0,West,5.8,-,N/A,,Clear,280,2013-11-24 10:55:00
5:15 AM,14.0,5.0,67,30.64,10.0,WNW,6.9,-,N/A,,Clear,290,2013-11-24 11:15:00
5:35 AM,12.2,5.0,73,30.65,10.0,West,6.9,-,N/A,,Clear,280,2013-11-24 11:35:00
5:55 AM,12.2,5.0,73,30.65,10.0,WNW,8.1,-,N/A,,Clear,290,2013-11-24 11:55:00
6:15 AM,12.2,5.0,73,30.66,10.0,WNW,6.9,-,N/A,,Clear,290,2013-11-24 12:15:00
6:35 AM,12.2,5.0,73,30.67,10.0,WNW,5.8,-,N/A,,Clear,300,2013-11-24 12:35:00
6:55 AM,12.2,5.0,73,30.68,10.0,NW,6.9,-,N/A,,Clear,310,2013-11-24 12:55:00
7:15 AM,14.0,5.0,67,30.69,10.0,WNW,8.1,-,N/A,,Clear,290,2013-11-24 13:15:00
7:35 AM,14.0,6.8,73,30.69,10.0,West,9.2,-,N/A,,Clear,280,2013-11-24 13:35:00
7:55 AM,15.8,6.8,68,30.70,10.0,WNW,10.4,16.1,N/A,,Clear,290,2013-11-24 13:55:00
8:15 AM,17.6,8.6,68,30.70,10.0,WNW,10.4,-,N/A,,Clear,290,2013-11-24 14:15:00
8:35 AM,17.6,8.6,68,30.71,10.0,West,9.2,-,N/A,,Clear,260,2013-11-24 14:35:00
8:55 AM,19.4,10.4,68,30.71,10.0,West,8.1,-,N/A,,Clear,260,2013-11-24 14:55:00
9:15 AM,19.4,10.4,68,30.71,10.0,West,6.9,-,N/A,,Clear,270,2013-11-24 15:15:00
9:35 AM,21.2,10.4,63,30.71,10.0,West,8.1,-,N/A,,Clear,260,2013-11-24 15:35:00
9:55 AM,21.2,8.6,58,30.71,10.0,West,8.1,-,N/A,,Clear,270,2013-11-24 15:55:00
10:15 AM,23.0,8.6,54,30.71,10.0,West,6.9,-,N/A,,Clear,270,2013-11-24 16:15:00
10:35 AM,23.0,6.8,50,30.71,10.0,West,9.2,-,N/A,,Clear,260,2013-11-24 16:35:00
10:55 AM,23.0,5.0,46,30.69,10.0,WSW,8.1,-,N/A,,Clear,240,2013-11-24 16:55:00
11:15 AM,24.8,1.4,36,30.67,10.0,West,6.9,-,N/A,,Clear,270,2013-11-24 17:15:00
11:35 AM,24.8,-2.2,31,30.66,10.0,WSW,4.6,-,N/A,,Clear,240,2013-11-24 17:35:00
11:55 AM,24.8,-0.4,34,30.65,10.0,WSW,4.6,-,N/A,,Clear,240,2013-11-24 17:55:00
12:15 PM,26.6,1.4,34,30.64,10.0,WNW,10.4,-,N/A,,Clear,290,2013-11-24 18:15:00
12:35 PM,26.6,1.4,34,30.63,10.0,West,6.9,-,N/A,,Clear,270,2013-11-24 18:35:00
12:55 PM,26.6,3.2,37,30.62,10.0,WSW,9.2,-,N/A,,Clear,240,2013-11-24 18:55:00
1:15 PM,26.6,3.2,37,30.60,10.0,SW,8.1,-,N/A,,Clear,230,2013-11-24 19:15:00
1:35 PM,26.6,3.2,37,30.59,10.0,SW,6.9,-,N/A,,Clear,220,2013-11-24 19:35:00
1:55 PM,26.6,3.2,37,30.59,10.0,West,6.9,-,N/A,,Clear,270,2013-11-24 19:55:00
2:15 PM,26.6,1.4,34,30.58,10.0,SW,5.8,-,N/A,,Clear,230,2013-11-24 20:15:00
2:35 PM,26.6,5.0,40,30.58,10.0,SW,3.5,-,N/A,,Clear,220,2013-11-24 20:35:00
2:55 PM,26.6,5.0,40,30.58,10.0,WSW,6.9,-,N/A,,Clear,250,2013-11-24 20:55:00
3:15 PM,26.6,3.2,37,30.57,10.0,SSW,6.9,-,N/A,,Clear,210,2013-11-24 21:15:00
3:35 PM,26.6,5.0,40,30.57,10.0,WSW,3.5,-,N/A,,Clear,240,2013-11-24 21:35:00
3:55 PM,26.6,5.0,40,30.56,10.0,SW,6.9,-,N/A,,Clear,220,2013-11-24 21:55:00
4:15 PM,24.8,8.6,50,30.55,10.0,SSW,5.8,-,N/A,,Clear,210,2013-11-24 22:15:00
4:35 PM,23.0,8.6,54,30.54,10.0,SW,4.6,-,N/A,,Clear,220,2013-11-24 22:35:00
4:55 PM,21.2,8.6,58,30.54,10.0,SSW,5.8,-,N/A,,Clear,210,2013-11-24 22:55:00
5:15 PM,23.0,8.6,54,30.53,10.0,South,3.5,-,N/A,,Clear,190,2013-11-24 23:15:00
5:35 PM,21.2,8.6,58,30.54,10.0,SSW,5.8,-,N/A,,Clear,210,2013-11-24 23:35:00
5:55 PM,21.2,10.4,63,30.54,10.0,SSW,4.6,-,N/A,,Clear,210,2013-11-24 23:55:00
6:15 PM,19.4,10.4,68,30.54,10.0,SSW,4.6,-,N/A,,Clear,200,2013-11-25 00:15:00
6:35 PM,19.4,12.2,74,30.53,10.0,South,5.8,-,N/A,,Clear,190,2013-11-25 00:35:00
6:55 PM,19.4,12.2,74,30.53,10.0,SSW,5.8,-,N/A,,Clear,200,2013-11-25 00:55:00
7:15 PM,21.2,12.2,68,30.51,10.0,SSW,6.9,-,N/A,,Clear,200,2013-11-25 01:15:00
7:35 PM,21.2,12.2,68,30.50,10.0,SSW,8.1,-,N/A,,Clear,200,2013-11-25 01:35:00
7:55 PM,21.2,12.2,68,30.50,10.0,SSW,6.9,-,N/A,,Clear,200,2013-11-25 01:55:00
8:15 PM,21.2,10.4,63,30.50,10.0,SSW,8.1,-,N/A,,Clear,200,2013-11-25 02:15:00
8:35 PM,21.2,10.4,63,30.49,10.0,SSW,8.1,-,N/A,,Clear,200,2013-11-25 02:35:00
8:55 PM,19.4,10.4,68,30.49,10.0,SSW,8.1,-,N/A,,Clear,200,2013-11-25 02:55:00
9:15 PM,21.2,10.4,63,30.49,10.0,SSW,8.1,-,N/A,,Clear,210,2013-11-25 03:15:00
9:35 PM,19.4,10.4,68,30.47,10.0,SSW,8.1,-,N/A,,Clear,210,2013-11-25 03:35:00
9:55 PM,19.4,10.4,68,30.47,10.0,SSW,8.1,-,N/A,,Clear,200,2013-11-25 03:55:00
10:15 PM,19.4,10.4,68,30.46,10.0,SSW,8.1,-,N/A,,Clear,200,2013-11-25 04:15:00
10:35 PM,19.4,10.4,68,30.46,10.0,SSW,6.9,-,N/A,,Clear,200,2013-11-25 04:35:00
10:55 PM,19.4,10.4,68,30.45,10.0,SSW,8.1,-,N/A,,Clear,200,2013-11-25 04:55:00
11:15 PM,19.4,10.4,68,30.44,10.0,SSW,8.1,-,N/A,,Clear,200,2013-11-25 05:15:00
11:35 PM,19.4,10.4,68,30.44,10.0,SSW,6.9,-,N/A,,Clear,200,2013-11-25 05:35:00
11:55 PM,19.4,10.4,68,30.43,10.0,South,9.2,-,N/A,,Clear,190,2013-11-25 05:55:00